Weerstation Grootegast  Weerstation Grootegast


15 daagse weersverwachting Salerno (IT)

  • Overzicht
  • Per uur
  • 15 dagen
  • Extra
  • Vergelijk
  • Kaarten
  • Dagkaart
  • Meer »
  • Info
  • Statistieken
  • Directe link
    Temp 6h Neerslag Wind  
 07:19     17:06    Daglengte: 9:47 Vandaag
07:00
12°
7.2 mm
5
13:00
13°
14.8 mm
6
19:00
12°
10.7 mm
5
 07:19     17:08    Daglengte: 9:49 Morgen
01:00
12°
4.6 mm
7
07:00
11°
24.1 mm
4
warningclass
13:00
12°
9.0 mm
6
19:00
10°
9.9 mm
4
 07:18     17:09    Daglengte: 9:51 Zondag 24 Jan
01:00
10°
5.5 mm
3
07:00
11°
6.3 mm
4
13:00
12°
52.0 mm
9
warningclass
19:00
10°
58.2 mm
3
 07:17     17:10    Daglengte: 9:53 Maandag 25 Jan
01:00
 
3
Locatie info
Region: Campania
Latitude: 40.6735°N
Longitude: 14.7713°E
46 masl
Postcode: 84123
Temp/Neerslag /Baro Onweer/Dauwpunt
    Temp Baro 1h Neerslag Dauwpunt Wind UV Bewolking  
 07:19     17:06    Daglengte: 9:47 Vandaag
05:00
12°
1017.0 hPa 3.4 mm
47%
10.7°
4
Windvlaag: 1.8 m/s
87%
06:00
12°
1016.9 hPa 2.1 mm
81%
10.8°
5
Windvlaag: 2.1 m/s
90%
07:00
12°
1016.6 hPa 1.6 mm
82%
11.1°
5
Windvlaag: 2.8 m/s
87%
08:00
12°
1016.5 hPa 1.9 mm
81%
11.2°
5
Windvlaag: 4.5 m/s
89%
09:00
13°
1016.3 hPa 2.8 mm
81%
11.1°
5
Windvlaag: 4.9 m/s
88%
10:00
13°
1016.2 hPa 2.3 mm
81%
11.4°
5
Windvlaag: 5 m/s
79%
11:00
13°
1016.0 hPa 2.7 mm
82%
11.6°
6
Windvlaag: 4.5 m/s
82%
12:00
13°
1015.4 hPa 2.7 mm
82%
11.3°
6
Windvlaag: 4.8 m/s
84%
13:00
13°
1014.5 hPa 2.4 mm
82%
11.5°
6
Windvlaag: 4.5 m/s
84%
14:00
13°
1013.9 hPa 2.0 mm
82%
11.4°
6
Windvlaag: 4.7 m/s
91%
15:00
13°
1013.4 hPa 2.7 mm
82%
11.2°
6
Windvlaag: 5.5 m/s
90%
16:00
13°
1012.9 hPa 2.0 mm
80%
11.0°
5
Windvlaag: 5.4 m/s
87%
17:00
13°
1012.2 hPa 1.8 mm
78%
11.0°
5
Windvlaag: 4.7 m/s
79%
18:00
13°
1011.7 hPa 1.2 mm
71%
11.0°
5
Windvlaag: 4.5 m/s
81%
19:00
12°
1011.3 hPa 1.0 mm
69%
10.5°
5
Windvlaag: 3.6 m/s
81%
20:00
12°
1010.7 hPa 1.1 mm
68%
10.0°
5
Windvlaag: 3.8 m/s
54%
21:00
12°
1010.2 hPa
61%
10.0°
5
Windvlaag: 3.1 m/s
54%
22:00
13°
1009.8 hPa
70%
10.4°
6
Windvlaag: 3.3 m/s
82%
23:00
13°
1009.1 hPa
73%
10.3°
7
Windvlaag: 3.9 m/s
69%
 07:19     17:08    Daglengte: 9:49 Morgen
00:00
13°
1008.6 hPa 1.1 mm
81%
9.8°
7
Windvlaag: 4.2 m/s
77%
01:00
12°
1008.2 hPa 2.4 mm
82%
9.8°
7
Windvlaag: 7.2 m/s
87%
02:00
12°
1007.6 hPa 3.1 mm
82%
10.3°
7
Windvlaag: 6.6 m/s
91%
03:00
12°
1006.9 hPa 2.7 mm
82%
10.9°
7
Windvlaag: 6.1 m/s
91% warningclass
04:00
12°
1006.4 hPa 5.0 mm
82%
10.5°
6
Windvlaag: 6 m/s
91% warningclass
05:00
12°
1005.9 hPa 5.1 mm
82%
10.6°
6
Windvlaag: 6.3 m/s
91% warningclass
06:00
12°
1005.9 hPa 4.2 mm
82%
10.1°
5
Windvlaag: 5.9 m/s
86% warningclass
07:00
11°
1006.2 hPa 3.9 mm
82%
9.4°
4
Windvlaag: 4.6 m/s
89% warningclass
08:00
11°
1006.2 hPa 2.6 mm
82%
9.3°
4
Windvlaag: 4.4 m/s
89%
09:00
12°
1006.2 hPa 2.4 mm
78%
8.7°
3
Windvlaag: 4.1 m/s
60%
10:00
12°
1006.2 hPa 2.0 mm
28%
7.9°
3
Windvlaag: 2.9 m/s
27%
11:00
12°
1006.4 hPa 2.0 mm
29%
6.0°
5
Windvlaag: 2.8 m/s
28%
12:00
12°
1006.2 hPa
22%
5.2°
6
Windvlaag: 2.8 m/s
30%
13:00
12°
1005.9 hPa
32%
5.3°
6
Windvlaag: 2.5 m/s
13%
14:00
12°
1006.0 hPa 2.4 mm
43%
5.9°
6
Windvlaag: 3.6 m/s
40%
15:00
11°
1006.2 hPa 2.4 mm
46%
5.6°
6
Windvlaag: 2.7 m/s
29%
16:00
11°
1006.3 hPa
46%
5.9°
6
Windvlaag: 2.7 m/s
31%
17:00
10°
1006.7 hPa 2.5 mm
44%
5.8°
5
Windvlaag: 2.3 m/s
41%
18:00
10°
Voelt als: 7.7°
1006.9 hPa 2.7 mm
42%
6.3°
4
Windvlaag: 1.3 m/s
29%
19:00
10°
Voelt als: 7.9°
1007.3 hPa
38%
7.1°
4
Windvlaag: 1 m/s
32%
20:00
10°
Voelt als: 7.8°
1007.7 hPa
39%
6.8°
4
Windvlaag: 1 m/s
33%
21:00
10°
1008.2 hPa
36%
6.0°
4
Windvlaag: 1 m/s
34%
22:00
Voelt als: 7.8°
1008.4 hPa 2.8 mm
54%
6.0°
2
Windvlaag: 1.3 m/s
81%
23:00
10°
1008.3 hPa 2.8 mm
98%
5.6°
2
Windvlaag: 2.1 m/s
84%
 07:18     17:09    Daglengte: 9:51 Zondag 24 Jan
00:00
11°
1008.1 hPa
96%
5.4°
3
Windvlaag: 1.6 m/s
59%
01:00
10°
1007.8 hPa
96%
5.2°
3
Windvlaag: 3.5 m/s
70%
02:00
10°
1007.1 hPa
92%
5.2°
3
Windvlaag: 3.3 m/s
51%
03:00
11°
1006.5 hPa
48%
5.8°
3
Windvlaag: 3.2 m/s
69%
04:00
11°
1005.8 hPa
42%
5.8°
4
Windvlaag: 4.6 m/s
64%
05:00
11°
1005.2 hPa
48%
6.2°
4
Windvlaag: 4.7 m/s
92%
06:00
11°
1004.9 hPa 3.7 mm
91%
6.9°
5
Windvlaag: 5.1 m/s
98%
07:00
11°
1004.5 hPa 2.6 mm
100%
7.8°
4
Windvlaag: 4.9 m/s
100%
08:00
11°
1003.7 hPa 4.2 mm
100%
8.8°
4
Windvlaag: 1.9 m/s
100%
09:00
11°
1002.7 hPa 6.0 mm
100%
9.6°
6
Windvlaag: 1.8 m/s
100%
10:00
11°
1001.1 hPa 8.6 mm
100%
10.8°
9
Windvlaag: 1.6 m/s
100%
11:00
11°
1000.1 hPa 10.9 mm
100%
10.3°
10
Windvlaag: 3 m/s
100%
12:00
11°
998.0 hPa 11.8 mm
100%
10.1°
10
Windvlaag: 3.3 m/s
100%
13:00
12°
996.5 hPa 10.5 mm
100%
10.8°
9
Windvlaag: 3.1 m/s
100% warningclass
14:00
12°
995.6 hPa 11.7 mm
100%
11.1°
9
Windvlaag: 3.4 m/s
100% warningclass
15:00
11°
995.5 hPa 10.6 mm
100%
10.2°
6
Windvlaag: 2.5 m/s
99%
16:00
11°
995.8 hPa 9.0 mm
100%
9.5°
4
Windvlaag: 2.1 m/s
86%
17:00
11°
996.9 hPa 13.9 mm
100%
8.6°
4
Windvlaag: 2.1 m/s
72%
18:00
10°
998.0 hPa
58%
7.8°
3
Windvlaag: 2 m/s
53%
19:00
10°
999.6 hPa 13.0 mm
58%
7.9°
3
Windvlaag: 1.9 m/s
49%
20:00
10°
Voelt als: 8.7°
1000.6 hPa
55%
7.5°
3
Windvlaag: 11.1 m/s
47%
21:00
10°
Voelt als: 8.3°
1001.7 hPa
52%
7.0°
2
Windvlaag: 9.8 m/s
36%
22:00
Voelt als: 7.8°
1002.7 hPa
45%
6.4°
3
Windvlaag: 10.1 m/s
24%
23:00
Voelt als: 7.4°
1003.7 hPa
27%
5.6°
3
Windvlaag: 10.6 m/s
16%
 07:17     17:10    Daglengte: 9:53 Maandag 25 Jan
00:00
Voelt als: 6.9°
1004.7 hPa
22%
4.9°
3
Windvlaag: 11.3 m/s
9%
01:00
Voelt als: 6.3°
1005.7 hPa
21%
3.9°
3
Windvlaag: 1.8 m/s
1%
02:00
Voelt als: 5.7°
1006.3 hPa 38.8 mm
100%
3.0°
3
Windvlaag: 12 m/s
15%
03:00
Voelt als: 5.5°
1006.9 hPa 38.8 mm
100%
2.3°
2
Windvlaag: 9.1 m/s
28%
04:00
Voelt als: 5.1°
1007.4 hPa 38.8 mm
100%
1.7°
2
Windvlaag: 5.2 m/s
41%
Temp/Neerslag /Baro Onweer/Dauwpunt
    Temp Baro Neerslag Dauwpunt Wind Bewolking  
 07:19     17:06    Daglengte: 9:47 Vandaag
07:00
12°
1016.6 hPa 7.2 mm 11.1°
5
87%
10:00
13°
1016.2 hPa 7.0 mm 11.4°
5
79%
13:00
13°
1014.5 hPa 7.8 mm 11.5°
6
84%
16:00
13°
1012.9 hPa 6.7 mm 11.0°
5
87%
19:00
12°
1011.3 hPa 3.9 mm 10.5°
5
81%
22:00
13°
1009.8 hPa 1.1 mm 10.4°
6
82%
 07:19     17:08    Daglengte: 9:49 Morgen
01:00
12°
1008.2 hPa 3.6 mm 9.8°
7
87%
04:00
12°
1006.4 hPa 10.8 mm 10.5°
6
91% warningclass
07:00
11°
1006.2 hPa 13.2 mm 9.4°
4
89% warningclass
10:00
12°
1006.2 hPa 7.0 mm 7.9°
3
27%
13:00
12°
1005.9 hPa 2.0 mm 5.3°
6
13%
16:00
11°
1006.3 hPa 4.7 mm 5.9°
6
31%
19:00
10°
Voelt als: 7.9°
1007.3 hPa 5.2 mm 7.1°
4
32%
22:00
Voelt als: 7.8°
1008.4 hPa 2.8 mm 6.0°
2
81%
 07:18     17:09    Daglengte: 9:51 Zondag 24 Jan
01:00
10°
1007.8 hPa 2.8 mm 5.2°
3
70%
04:00
11°
1005.8 hPa   5.8°
4
64%
07:00
11°
1004.5 hPa 6.3 mm 7.8°
4
100%
10:00
11°
1001.1 hPa 18.8 mm 10.8°
9
100%
13:00
12°
996.5 hPa 33.2 mm 10.8°
9
100% warningclass
16:00
11°
995.8 hPa 31.3 mm 9.5°
4
86%
19:00
10°
999.6 hPa 26.9 mm 7.9°
3
49%
22:00
Voelt als: 7.8°
1002.7 hPa   6.4°
3
24%
 07:17     17:10    Daglengte: 9:53 Maandag 25 Jan
01:00
Voelt als: 6.3°
1005.7 hPa   3.9°
3
1%
04:00
Voelt als: 5.1°
1007.4 hPa 116.4 mm 1.7°
2
41%
07:00
Voelt als: 4.1°
1008.9 hPa 116.4 mm 0.8°
2
94%
10:00
10°
1008.2 hPa 74.7 mm 5.2°
5
77%
13:00
13°
1007.9 hPa 74.7 mm 7.5°
6
72%
16:00
12°
1007.9 hPa 74.8 mm 8.2°
4
81%
19:00
11°
1008.0 hPa 74.8 mm 8.7°
3
90%
22:00
Voelt als: 7.5°
1009.2 hPa 74.9 mm 5.5°
2
89%
 07:16     17:11    Daglengte: 9:55 Dinsdag 26 Jan
01:00
Voelt als: 6.2°
1010.2 hPa 74.9 mm 2.2°
1
89%
04:00
Voelt als: 4.6°
1010.5 hPa 74.9 mm 1.5°
2
90%
07:00
Voelt als: 3.3°
1010.9 hPa 74.9 mm 0.8°
3
91%
10:00
Voelt als: 6.6°
1011.6 hPa 74.9 mm -0.1°
3
86%
13:00
11°
1012.1 hPa 74.9 mm -2.5°
2
82%
16:00
Voelt als: 6.8°
1013.5 hPa 74.9 mm -3.6°
2
41%
19:00
Voelt als: 3.7°
1015.0 hPa 74.9 mm -4.9°
2
0%
22:00
Voelt als: 2.0°
1015.6 hPa   -4.6°
3
0%
 07:15     17:13    Daglengte: 9:58 Woensdag 27 Jan
01:00
Voelt als: 1.4°
1016.9 hPa 74.9 mm -4.3°
4
0%
04:00
Voelt als: 0.7°
1017.0 hPa 74.9 mm -2.9°
3
27%
07:00
Voelt als: 0.1°
1017.2 hPa 74.9 mm -1.9°
2
53%
10:00
Voelt als: 4.2°
1016.9 hPa 74.9 mm -1.8°
3
27%
13:00
10°
Voelt als: 8.3°
1016.5 hPa 75.0 mm -2.5°
3
0%
16:00
Voelt als: 5.6°
1016.7 hPa 75.6 mm -1.3°
2
0%
19:00
Voelt als: 3.3°
1017.1 hPa 78.0 mm -1.1°
2
0%
22:00
Voelt als: 1.2°
1018.0 hPa 78.7 mm -2.0°
2
0%
 07:15     17:14    Daglengte: 9:59 Donderdag 28 Jan
01:00
Voelt als: -0.9°
1018.8 hPa 78.7 mm -3.1°
2
0%
04:00
Voelt als: -1.3°
1019.1 hPa 78.7 mm -4.4°
2
0% warningclass
07:00
Voelt als: -1.3°
1019.4 hPa 78.7 mm -5.5°
1
0% warningclass
10:00
Voelt als: 5.0°
1019.7 hPa 78.7 mm -2.5°
1
0%
13:00
11°
1019.9 hPa 78.7 mm 0.1°
1
0%
16:00
Voelt als: 8.9°
1019.9 hPa 78.8 mm 2.6°
1
35%
19:00
Voelt als: 6.7°
1019.9 hPa 78.9 mm 3.8°
1
70%
22:00
Voelt als: 6.5°
1018.0 hPa 79.0 mm 5.3°
2
81%
 07:14     17:15    Daglengte: 10:01 Vrijdag 29 Jan
01:00
Voelt als: 6.5°
1016.1 hPa 79.4 mm 6.9°
3
92%
04:00
Voelt als: 7.6°
1013.4 hPa   8.1°
3
92%
07:00
10°
Voelt als: 8.5°
1011.0 hPa 162.2 mm 9.3°
3
92%
13:00
16°
1009.9 hPa 162.9 mm 10.7°
2
90%
19:00
11°
1010.5 hPa 163.1 mm 9.7°
1
90%
 07:13     17:16    Daglengte: 10:03 Zaterdag 30 Jan
01:00
Voelt als: 8.6°
1010.3 hPa 163.1 mm 8.3°
1
75%
07:00
Voelt als: 7.6°
1010.6 hPa 163.1 mm 7.0°
2
21%
13:00
14°
1014.3 hPa 163.1 mm 6.9°
5
1%
19:00
10°
Voelt als: 9.2°
1018.7 hPa 163.1 mm 5.2°
1
34%
 07:12     17:17    Daglengte: 10:05 Zondag 31 Jan
01:00
Voelt als: 4.3°
1019.8 hPa 163.1 mm 3.4°
2
16%
07:00
Voelt als: 5.7°
1019.6 hPa 163.1 mm 1.1°
1
74%
13:00
15°
1005.1 hPa   11.0°
5
75%
19:00
12°
1003.8 hPa 1.8 mm 9.7°
4
71%
 07:11     17:19    Daglengte: 10:08 Maandag 01 Feb
01:00
12°
1003.5 hPa 2.2 mm 8.5°
4
66%
07:00
11°
1002.5 hPa 2.0 mm 8.2°
3
58%
13:00
13°
1002.2 hPa 1.9 mm 8.4°
5
68%
19:00
11°
1002.6 hPa 2.1 mm 8.2°
3
70%
 07:10     17:20    Daglengte: 10:10 Dinsdag 02 Feb
01:00
10°
1003.7 hPa 2.1 mm 7.7°
1
71%
07:00
10°
Voelt als: 9.7°
1004.3 hPa 2.4 mm 7.0°
0
66%
13:00
13°
1005.6 hPa 1.5 mm 7.2°
2
60%
19:00
11°
1007.1 hPa 1.2 mm 7.3°
1
60%
 07:09     17:21    Daglengte: 10:12 Woensdag 03 Feb
01:00
10°
1008.4 hPa 1.5 mm 7.1°
0
51%
07:00
1009.0 hPa 0.7 mm 6.3°
0
51%
13:00
13°
1009.8 hPa 0.8 mm 6.8°
2
50%
19:00
11°
1010.6 hPa 1.2 mm 7.2°
1
59%
 07:08     17:22    Daglengte: 10:14 Donderdag 04 Feb
01:00
10°
1011.2 hPa 1.4 mm 6.9°
1
65%
07:00
10°
Voelt als: 9.4°
1011.2 hPa 1.1 mm 7.1°
1
62%
13:00
13°
1011.9 hPa 1.2 mm 7.6°
3
63%
19:00
11°
1012.6 hPa 1.4 mm 7.0°
1
59%
 07:07     17:24    Daglengte: 10:17 Vrijdag 05 Feb
01:00
10°
1013.0 hPa 1.4 mm 7.3°
2
65%
07:00
10°
1012.8 hPa 1.9 mm 7.0°
1
65%
13:00
13°
1012.7 hPa 1.7 mm 7.7°
3
71%
19:00
10°
1013.0 hPa 1.8 mm 6.8°
1
68%
 07:06     17:25    Daglengte: 10:19 Zaterdag 06 Feb
01:00
10°
Voelt als: 9.5°
1013.3 hPa 1.2 mm 6.4°
0
65%
  CAPE Lifted Index Hail Supercell Tornado SRH 3km CL BTM PRES CL TOP PRES Swiss DWD icon SMHI TS
 07:19     17:06    Daglengte: 9:47 Vandaag
05:00 206 J/kg 3.0 K 0 % 0 % 0 % 0 m²/s² 0 0 3.66 80
06:00 229 J/kg 3.3 K 0 % 0 % 0 % 0 m²/s² 0 0 4.53 80
07:00 254 J/kg 3.1 K 0 % 0 % 0 % 0 m²/s² 0 0 4.42 80
08:00 272 J/kg 2.7 K 0 % 0 % 0 % 0 m²/s² 0 0 4.53 80
09:00 265 J/kg 2.6 K 0 % 0 % 0 % 0 m²/s² 0 0 4.49 80
10:00 286 J/kg 2.4 K 0 % 0 % 0 % 0 m²/s² 0 0 4.29 80
11:00 290 J/kg 2.3 K 0 % 0 % 0 % 0 m²/s² 0 0 4.64 80
12:00 294 J/kg 2.0 K 0 % 0 % 0 % 0 m²/s² 0 0 4.43 80
13:00 289 J/kg 2.2 K 0 % 0 % 0 % 0 m²/s² 0 0 4.27 80
14:00 317 J/kg 1.7 K 0 % 0 % 0 % 0 m²/s² 0 0 2.78 80
15:00 303 J/kg 1.8 K 0 % 0 % 0 % 0 m²/s² 0 0 2.55 80
16:00 217 J/kg 2.3 K 0 % 0 % 0 % 0 m²/s² 0 0 2.78 80
17:00 225 J/kg 1.8 K 0 % 0 % 0 % 0 m²/s² 0 0 2.13 80
18:00 256 J/kg 1.0 K 0 % 0 % 0 % 0 m²/s² 0 0 1.3 80
19:00 155 J/kg 1.3 K 0 % 0 % 0 % 0 m²/s² 0 0 1.54 80
20:00 87 J/kg 1.4 K 0 % 0 % 0 % 0 m²/s² 0 0 1.73 2
21:00 69 J/kg 0.4 K 0 % 0 % 0 % 0 m²/s² 0 0 0.64 3
22:00 68 J/kg 0.0 K 0 % 0 % 0 % 0 m²/s² 0 0 0.15 3
23:00 166 J/kg -0.8 K 0 % 0 % 0 % 0 m²/s² 0 0 0.52 3
 07:19     17:08    Daglengte: 9:49 Morgen
00:00 255 J/kg -1.3 K 0 % 0 % 0 % 0 m²/s² 0 0 1.04 61
01:00 355 J/kg -1.7 K 0 % 0 % 0 % 0 m²/s² 0 0 0.37 61
02:00 667 J/kg -3.1 K 0 % 0 % 0 % 0 m²/s² 0 0 -0.61 61
03:00 947 J/kg -3.3 K 0 % 0 % 0 % 0 m²/s² 0 0 -0.84 95
04:00 616 J/kg -2.8 K 0 % 0 % 0 % 0 m²/s² 0 0 -0.94 95
05:00 834 J/kg -3.8 K 0 % 0 % 0 % 0 m²/s² 0 0 -2.66 95
06:00 148 J/kg -0.4 K 0 % 0 % 0 % 0 m²/s² 0 0 0.5 95
07:00 153 J/kg -0.3 K 0 % 0 % 0 % 0 m²/s² 0 0 0.39 95
08:00 159 J/kg 0.2 K 0 % 0 % 0 % 0 m²/s² 0 0 0.59 80
09:00 99 J/kg 1.2 K 0 % 0 % 0 % 0 m²/s² 0 0 3.33 3
10:00 50 J/kg 1.7 K 0 % 0 % 0 % 0 m²/s² 0 0 5.48 3
11:00 107 J/kg 1.0 K 0 % 0 % 0 % 0 m²/s² 0 0 4.96 1
12:00 213 J/kg 0.3 K 0 % 0 % 0 % 0 m²/s² 0 0 3.03 1
13:00 233 J/kg 0.2 K 0 % 0 % 0 % 0 m²/s² 0 0 2.24 1
14:00 313 J/kg -1.2 K 0 % 0 % 0 % 0 m²/s² 0 0 -0.81 1
15:00 400 J/kg -1.5 K 0 % 0 % 0 % 0 m²/s² 0 0 0.87 2
16:00 475 J/kg -1.8 K 0 % 0 % 0 % 0 m²/s² 0 0 1.08 1
17:00 116 J/kg 0.3 K 0 % 0 % 0 % 0 m²/s² 0 0 4.26 2
18:00 136 J/kg 0.7 K 0 % 0 % 0 % 0 m²/s² 0 0 4.54 1
19:00 165 J/kg 1.0 K 0 % 0 % 0 % 0 m²/s² 0 0 2.41 2
20:00 349 J/kg -1.1 K 0 % 0 % 0 % 0 m²/s² 0 0 0.76 2
21:00 449 J/kg -1.9 K 0 % 0 % 0 % 0 m²/s² 0 0 -0.13 2
22:00 371 J/kg -1.1 K 0 % 0 % 0 % 0 m²/s² 0 0 -0.08 3
23:00 292 J/kg 0.7 K 0 % 0 % 0 % 0 m²/s² 0 0 1.87 3
 07:18     17:09    Daglengte: 9:51 Zondag 24 Jan
00:00 172 J/kg 2.9 K 0 % 0 % 0 % 0 m²/s² 0 0 5.66 3
01:00 181 J/kg 3.2 K 0 % 0 % 0 % 0 m²/s² 0 0 6.8 3
02:00 155 J/kg 3.4 K 0 % 0 % 0 % 0 m²/s² 0 0 7.03 2
03:00 165 J/kg 2.7 K 0 % 0 % 0 % 0 m²/s² 0 0 5.67 2
04:00 100 J/kg 2.9 K 0 % 0 % 0 % 0 m²/s² 0 0 4.64 3
05:00 131 J/kg 2.7 K 0 % 0 % 0 % 0 m²/s² 0 0 3.15 3
06:00 168 J/kg 2.1 K 0 % 0 % 0 % 0 m²/s² 0 0 2.49 3
07:00 216 J/kg 1.4 K 0 % 0 % 0 % 0 m²/s² 0 0 1.73 80
08:00 279 J/kg 0.9 K 0 % 0 % 0 % 0 m²/s² 0 0 1.17 61
09:00 153 J/kg 1.1 K 0 % 0 % 0 % 0 m²/s² 0 0 1.25 63
10:00 363 J/kg -1.6 K 0 % 0 % 0 % 0 m²/s² 0 0 -1.45 63
11:00 300 J/kg -1.3 K 0 % 0 % 0 % 0 m²/s² 0 0 -1.06 63
12:00 314 J/kg -1.5 K 0 % 0 % 0 % 0 m²/s² 0 0 -1.38 63
13:00 667 J/kg -2.9 K 0 % 0 % 0 % 0 m²/s² 0 0 -2.66 95
14:00 715 J/kg -3.2 K 0 % 0 % 0 % 0 m²/s² 0 0 -1.88 95
15:00 632 J/kg -3.2 K 0 % 0 % 0 % 0 m²/s² 0 0 -1.67 80
16:00 5 J/kg 0.9 K 0 % 0 % 0 % 0 m²/s² 0 0 2.88 61
17:00 4 J/kg 2.4 K 0 % 0 % 0 % 0 m²/s² 0 0 4.2 61
18:00 0 J/kg 3.6 K 0 % 0 % 0 % 0 m²/s² 0 0 7.86 3
19:00 0 J/kg 5.0 K 0 % 0 % 0 % 0 m²/s² 0 0 10.55 2
20:00 0 J/kg 4.1 K 0 % 0 % 0 % 0 m²/s² 0 0 10.31 2
21:00 5 J/kg 3.2 K 0 % 0 % 0 % 0 m²/s² 0 0 9.02 2
22:00 4 J/kg 4.4 K 0 % 0 % 0 % 0 m²/s² 0 0 10.04 2
23:00 0 J/kg 6.9 K 0 % 0 % 0 % 0 m²/s² 0 0 12.39 1
 07:17     17:10    Daglengte: 9:53 Maandag 25 Jan
00:00 0 J/kg 9.3 K 0 % 0 % 0 % 0 m²/s² 0 0 14.64 0
01:00 0 J/kg 9.6 K 0 % 0 % 0 % 0 m²/s² 0 0 14.82 0
02:00 0 J/kg 9.9 K 0 % 0 % 0 % 0 m²/s² 0 0 14.85
03:00 0 J/kg 9.3 K 0 % 0 % 0 % 0 m²/s² 0 0 13.86
04:00 0 J/kg 8.2 K 0 % 0 % 0 % 0 m²/s² 0 0 12.01
Temp Baro Wind Neerslag
  EWN Forecast EWN WRFDA DWD ICON FMI HIRLAM MET Norway GFS
 07:19     17:06    Daglengte: 9:47 Vandaag
07:00 12.0° 1016.6 hPa 5.0 m/s 7.2 mm 13.0° 1014.6 hPa 6.5 m/s 2.0 mm 11.4° 1017.6 hPa 5.0 m/s 11.7 mm 13.2° 1016.2 hPa 7.0 m/s 0.0 mm 12.1° 1016.6 hPa 4.6 m/s 12.9° 1014.7 hPa 6.6 m/s
10:00 13.1° 1016.2 hPa 5.3 m/s 7.0 mm 14.1° 1015.0 hPa 8.2 m/s 5.4 mm 11.8° 1017.6 hPa 4.0 m/s 4.1 mm 13.8° 1015.6 hPa 7.2 m/s 0.0 mm 13.3° 1016.2 hPa 5.0 m/s 13.2° 1014.7 hPa 7.3 m/s
13:00 13.2° 1014.5 hPa 5.6 m/s 7.8 mm 14.4° 1012.7 hPa 8.0 m/s 8.3 mm 12.1° 1015.1 hPa 6.0 m/s 4.4 mm 14.0° 1014.0 hPa 6.6 m/s 0.0 mm 13.4° 1014.6 hPa 5.0 m/s 14.3° 1012.1 hPa 7.8 m/s
16:00 13.2° 1012.9 hPa 5.1 m/s 6.7 mm 14.1° 1010.5 hPa 7.5 m/s 10.9 mm 12.3° 1013.6 hPa 5.2 m/s 4.8 mm 13.8° 1011.8 hPa 6.5 m/s 0.0 mm 13.4° 1013.2 hPa 4.4 m/s 13.8° 1010.4 hPa 7.1 m/s
19:00 12.4° 1011.3 hPa 5.2 m/s 3.9 mm 14.3° 1008.5 hPa 8.8 m/s 11.8 mm 12.2° 1012.4 hPa 6.0 m/s 4.0 mm 13.7° 1010.1 hPa 7.5 m/s 0.0 mm 12.3° 1011.5 hPa 3.9 m/s 13.9° 1009.0 hPa 7.4 m/s
22:00 12.7° 1009.8 hPa 6.4 m/s 1.1 mm 14.0° 1006.5 hPa 10.5 m/s 12.4 mm 12.8° 1010.1 hPa 7.7 m/s 0.8 mm 13.9° 1008.1 hPa 8.7 m/s 0.0 mm 12.6° 1010.3 hPa 4.8 m/s 14.2° 1007.2 hPa 9.4 m/s
 07:19     17:08    Daglengte: 9:49 Morgen
01:00 12.2° 1008.2 hPa 7.3 m/s 3.6 mm 14.1° 1003.6 hPa 12.6 m/s 14.5 mm 11.8° 1008.6 hPa 8.1 m/s 2.0 mm 14.0° 1006.6 hPa 8.8 m/s 0.0 mm 12.0° 1009.2 hPa 5.6 m/s 13.7° 1004.5 hPa 10.2 m/s
04:00 11.8° 1006.4 hPa 6.5 m/s 10.8 mm 13.5° 1002.9 hPa 7.3 m/s 20.4 mm 11.2° 1006.6 hPa 6.8 m/s 6.9 mm 13.2° 1005.8 hPa 7.7 m/s 0.0 mm 11.6° 1007.0 hPa 6.0 m/s 13.5° 1003.0 hPa 9.6 m/s
07:00 11.2° 1006.2 hPa 4.1 m/s 13.2 mm 12.1° 1003.4 hPa 5.6 m/s 27.6 mm 11.0° 1006.4 hPa 0.8 m/s 15.0 mm 11.8° 1005.6 hPa 4.9 m/s 0.0 mm 11.1° 1006.5 hPa 4.3 m/s 12.4° 1003.4 hPa 6.5 m/s
10:00 11.8° 1006.2 hPa 3.1 m/s 7.0 mm 12.4° 1003.6 hPa 10.2 m/s 28.4 mm 11.5° 1006.1 hPa 1.2 m/s 1.3 mm 11.9° 1005.9 hPa 6.7 m/s 0.0 mm 12.4° 1006.7 hPa 2.3 m/s 12.0° 1004.0 hPa 5.5 m/s
13:00 12.1° 1005.9 hPa 5.9 m/s 2.0 mm 12.5° 1003.8 hPa 9.9 m/s 29.2 mm 11.9° 1006.1 hPa 6.0 m/s 0.0 mm 12.2° 1005.2 hPa 8.0 m/s 0.0 mm 12.8° 1006.6 hPa 5.2 m/s 11.9° 1004.0 hPa 8.6 m/s
16:00 11.1° 1006.3 hPa 6.0 m/s 4.7 mm 11.9° 1003.9 hPa 8.8 m/s 33.2 mm 10.6° 1006.6 hPa 6.4 m/s 0.0 mm 11.4° 1005.4 hPa 6.8 m/s 0.0 mm 11.2° 1006.7 hPa 3.8 m/s 11.8° 1003.5 hPa 7.4 m/s
19:00 9.9° 1007.3 hPa 4.0 m/s 5.2 mm 11.5° 1004.3 hPa 6.3 m/s 34.5 mm 9.8° 1007.5 hPa 4.5 m/s 0.0 mm 10.3° 1006.2 hPa 6.9 m/s 0.0 mm 9.9° 1008.3 hPa 2.3 m/s 11.7° 1004.1 hPa 7.4 m/s
22:00 8.8° 1008.4 hPa 1.9 m/s 2.8 mm 12.2° 1004.2 hPa 9.6 m/s 37.2 mm 9.5° 1009.1 hPa 1.2 m/s 0.0 mm 8.4° 1008.7 hPa 0.8 m/s 11.5° 1004.3 hPa 6.2 m/s
 07:18     17:09    Daglengte: 9:51 Zondag 24 Jan
01:00 10.5° 1007.8 hPa 2.6 m/s 2.8 mm 11.9° 1004.0 hPa 8.2 m/s 40.3 mm 9.3° 1008.2 hPa 1.2 m/s 0.1 mm 10.8° 1008.1 hPa 2.0 m/s 10.9° 1004.2 hPa 6.3 m/s
04:00 10.8° 1005.8 hPa 4.0 m/s 0.0 mm 11.9° 1002.9 hPa 7.6 m/s 41.6 mm 9.9° 1006.1 hPa 2.7 m/s 0.1 mm 11.1° 1005.9 hPa 3.7 m/s 11.1° 1003.2 hPa 7.7 m/s
07:00 10.9° 1004.5 hPa 4.2 m/s 6.3 mm 11.7° 1002.7 hPa 7.1 m/s 42.9 mm 9.7° 1004.5 hPa 3.5 m/s 1.1 mm 11.1° 1004.6 hPa 3.9 m/s 11.1° 1003.4 hPa 4.9 m/s
10:00 11.3° 1001.1 hPa 8.8 m/s 18.8 mm 11.9° 999.1 hPa 9.5 m/s 58.3 mm 10.5° 999.8 hPa 10.4 m/s 10.3 mm 11.4° 1002.5 hPa 7.8 m/s 10.4° 1001.9 hPa 4.0 m/s
13:00 11.7° 996.5 hPa 8.8 m/s 33.2 mm 13.0° 994.7 hPa 13.6 m/s 93.9 mm 11.5° 995.6 hPa 6.4 m/s 21.8 mm 11.6° 997.5 hPa 8.6 m/s 11.6° 997.3 hPa 9.6 m/s
16:00 11.2° 995.8 hPa 4.1 m/s 31.3 mm 11.4° 994.8 hPa 8.9 m/s 114.7 mm 10.9° 995.3 hPa 0.6 m/s 5.1 mm 11.2° 996.4 hPa 4.1 m/s 11.9° 993.5 hPa 10.0 m/s
19:00 10.2° 999.6 hPa 3.0 m/s 26.9 mm 9.4° 999.8 hPa 8.5 m/s 116.4 mm 10.4° 998.7 hPa 2.1 m/s 0.1 mm 10.3° 999.7 hPa 2.5 m/s 11.5° 994.6 hPa 6.8 m/s
22:00 9.2° 1002.7 hPa 2.5 m/s 0.0 mm 8.4° 1003.7 hPa 3.3 m/s 116.4 mm 9.6° 1002.1 hPa 2.0 m/s 0.0 mm 9.2° 1002.7 hPa 2.5 m/s 10.9° 998.0 hPa 5.4 m/s
 07:17     17:10    Daglengte: 9:53 Maandag 25 Jan
01:00 8.0° 1005.7 hPa 2.6 m/s 0.0 mm 6.8° 1006.0 hPa 4.2 m/s 116.4 mm 8.1° 1005.6 hPa 1.9 m/s 0.0 mm 8.1° 1005.7 hPa 2.5 m/s 10.1° 1001.6 hPa 8.1 m/s
04:00 6.4° 1007.4 hPa 1.9 m/s 116.4 mm 5.8° 1007.2 hPa 1.0 m/s 116.4 mm 6.5° 1007.5 hPa 2.0 m/s 9.5° 1003.8 hPa 6.0 m/s
07:00 5.5° 1008.9 hPa 1.8 m/s 116.4 mm 8.8° 1006.8 hPa 3.0 m/s 116.4 mm 4.9° 1009.2 hPa 1.6 m/s 9.8° 1004.9 hPa 7.4 m/s
10:00 10.3° 1008.2 hPa 4.8 m/s 74.7 mm 10.2° 1008.5 hPa 4.1 m/s 11.7° 1005.4 hPa 13.2 m/s 74.7 mm
13:00 12.7° 1007.9 hPa 5.9 m/s 74.7 mm 12.8° 1008.1 hPa 5.3 m/s 11.3° 1005.8 hPa 12.5 m/s 74.7 mm
16:00 11.7° 1007.9 hPa 4.5 m/s 74.8 mm 11.9° 1007.9 hPa 4.0 m/s 10.4° 1007.7 hPa 8.9 m/s 74.8 mm
19:00 10.8° 1008.0 hPa 2.9 m/s 74.8 mm 10.9° 1007.7 hPa 2.8 m/s 9.6° 1011.3 hPa 4.5 m/s 74.8 mm
22:00 8.6° 1009.2 hPa 2.0 m/s 74.9 mm 8.7° 1008.8 hPa 1.9 m/s 7.7° 1014.0 hPa 2.9 m/s 74.9 mm
 07:16     17:11    Daglengte: 9:55 Dinsdag 26 Jan
01:00 6.5° 1010.2 hPa 1.1 m/s 74.9 mm 6.4° 1009.8 hPa 1.0 m/s 7.0° 1014.9 hPa 2.0 m/s 74.9 mm
04:00 6.0° 1010.5 hPa 1.9 m/s 74.9 mm 5.9° 1010.1 hPa 1.9 m/s 6.6° 1014.9 hPa 1.4 m/s 74.9 mm
07:00 5.5° 1010.9 hPa 2.7 m/s 74.9 mm 5.4° 1010.4 hPa 2.8 m/s 6.4° 1016.0 hPa 1.9 m/s 74.9 mm
10:00 8.2° 1011.6 hPa 2.6 m/s 74.9 mm 8.2° 1011.0 hPa 2.7 m/s 8.8° 1017.2 hPa 1.4 m/s 74.9 mm
13:00 10.9° 1012.1 hPa 2.5 m/s 74.9 mm 10.9° 1011.7 hPa 2.6 m/s 10.9° 1016.9 hPa 0.9 m/s 74.9 mm
16:00 8.0° 1013.5 hPa 2.0 m/s 74.9 mm 7.8° 1013.2 hPa 2.1 m/s 10.7° 1016.7 hPa 1.2 m/s 74.9 mm
19:00 4.9° 1015.0 hPa 1.6 m/s 74.9 mm 4.6° 1014.7 hPa 1.6 m/s 8.8° 1018.7 hPa 1.7 m/s 74.9 mm
22:00 4.5° 1015.6 hPa 2.9 m/s 0.0 mm 4.5° 1015.7 hPa 2.9 m/s
 07:15     17:13    Daglengte: 9:58 Woensdag 27 Jan
01:00 4.6° 1016.9 hPa 4.0 m/s 74.9 mm 4.4° 1016.6 hPa 4.2 m/s 6.6° 1019.7 hPa 1.5 m/s 74.9 mm
04:00 3.5° 1017.0 hPa 3.1 m/s 74.9 mm 3.2° 1016.9 hPa 3.3 m/s 6.5° 1018.8 hPa 0.9 m/s 74.9 mm
07:00 2.5° 1017.2 hPa 2.3 m/s 74.9 mm 2.1° 1017.1 hPa 2.4 m/s 6.6° 1018.4 hPa 1.3 m/s 74.9 mm
10:00 6.2° 1016.9 hPa 2.6 m/s 74.9 mm 6.0° 1016.8 hPa 2.6 m/s 8.8° 1017.9 hPa 2.0 m/s 74.9 mm
13:00 9.7° 1016.5 hPa 2.8 m/s 75.0 mm 9.8° 1016.5 hPa 2.9 m/s 8.7° 1016.2 hPa 1.2 m/s 75.0 mm
16:00 7.1° 1016.7 hPa 2.2 m/s 75.6 mm 7.0° 1016.9 hPa 2.2 m/s 8.1° 1014.9 hPa 2.7 m/s 75.6 mm
19:00 4.5° 1017.1 hPa 1.6 m/s 78.0 mm 4.2° 1017.2 hPa 1.5 m/s 7.9° 1015.7 hPa 2.8 m/s 78.0 mm
22:00 3.2° 1018.0 hPa 2.0 m/s 78.7 mm 2.8° 1018.0 hPa 1.9 m/s 8.1° 1017.9 hPa 2.9 m/s 78.7 mm
 07:15     17:14    Daglengte: 9:59 Donderdag 28 Jan
01:00 1.8° 1018.8 hPa 2.5 m/s 78.7 mm 1.3° 1018.8 hPa 2.4 m/s 7.1° 1019.4 hPa 3.4 m/s 78.7 mm
04:00 1.0° 1019.1 hPa 2.0 m/s 78.7 mm 0.5° 1019.0 hPa 1.9 m/s 6.6° 1020.2 hPa 2.8 m/s 78.7 mm
07:00 0.3° 1019.4 hPa 1.4 m/s 78.7 mm -0.3° 1019.2 hPa 1.4 m/s 6.4° 1021.2 hPa 1.7 m/s 78.7 mm
10:00 5.8° 1019.7 hPa 1.4 m/s 78.7 mm 5.5° 1019.5 hPa 1.4 m/s 9.3° 1021.8 hPa 1.4 m/s 78.7 mm
13:00 11.2° 1019.9 hPa 1.3 m/s 78.7 mm 11.2° 1019.9 hPa 1.3 m/s 11.0° 1020.4 hPa 1.7 m/s 78.7 mm
16:00 9.3° 1019.9 hPa 1.5 m/s 78.8 mm 9.1° 1020.0 hPa 1.4 m/s 10.8° 1019.2 hPa 2.7 m/s 78.8 mm
19:00 7.4° 1019.9 hPa 1.5 m/s 78.9 mm 7.1° 1020.0 hPa 1.4 m/s 10.8° 1018.7 hPa 2.0 m/s 78.9 mm
22:00 7.8° 1018.0 hPa 2.2 m/s 79.0 mm 7.5° 1018.1 hPa 2.1 m/s 10.9° 1017.0 hPa 3.6 m/s 79.0 mm
 07:14     17:15    Daglengte: 10:01 Vrijdag 29 Jan
01:00 8.2° 1016.1 hPa 2.9 m/s 79.4 mm 8.0° 1016.2 hPa 2.8 m/s 10.8° 1014.8 hPa 4.1 m/s 79.4 mm
04:00 9.0° 1013.4 hPa 2.6 m/s 80.8 mm 8.9° 1013.5 hPa 2.8 m/s 10.3° 1012.2 hPa 1.3 m/s 80.8 mm
07:00 9.8° 1011.0 hPa 2.7 m/s 81.4 mm 9.8° 1010.9 hPa 2.7 m/s 9.9° 1012.0 hPa 2.3 m/s 81.4 mm
13:00 15.6° 1009.9 hPa 1.7 m/s 81.5 mm 15.8° 1009.4 hPa 1.4 m/s 13.2° 1015.9 hPa 4.7 m/s 81.5 mm
19:00 10.7° 1010.5 hPa 0.9 m/s 81.5 mm 10.7° 1009.7 hPa 0.6 m/s 10.8° 1019.4 hPa 4.3 m/s 81.5 mm
 07:13     17:16    Daglengte: 10:03 Zaterdag 30 Jan
01:00 9.1° 1010.3 hPa 1.5 m/s 81.5 mm 9.1° 1009.3 hPa 1.4 m/s 9.3° 1021.1 hPa 2.6 m/s 81.5 mm
07:00 8.7° 1010.6 hPa 2.1 m/s 81.5 mm 8.7° 1009.7 hPa 2.2 m/s 9.0° 1020.8 hPa 1.3 m/s 81.5 mm
13:00 14.1° 1014.3 hPa 5.5 m/s 81.5 mm 14.1° 1013.8 hPa 5.8 m/s 13.6° 1020.3 hPa 1.6 m/s 81.5 mm
19:00 9.5° 1018.7 hPa 1.4 m/s 81.5 mm 9.4° 1018.8 hPa 1.4 m/s 10.9° 1018.2 hPa 1.1 m/s 81.5 mm
 07:12     17:17    Daglengte: 10:05 Zondag 31 Jan
01:00 5.4° 1019.8 hPa 1.6 m/s 81.5 mm 5.0° 1020.3 hPa 1.6 m/s 10.1° 1014.9 hPa 2.0 m/s 81.5 mm
07:00 6.0° 1019.6 hPa 1.1 m/s 81.5 mm 5.7° 1020.5 hPa 1.0 m/s 9.8° 1010.2 hPa 2.1 m/s 81.5 mm
13:00 14.6° 1005.1 hPa 5.2 m/s 0.0 mm
19:00 12.5° 1003.8 hPa 4.2 m/s 1.8 mm
 07:11     17:19    Daglengte: 10:08 Maandag 01 Feb
01:00 11.7° 1003.5 hPa 4.4 m/s 2.2 mm
07:00 11.0° 1002.5 hPa 3.4 m/s 2.0 mm
13:00 13.5° 1002.2 hPa 5.2 m/s 1.9 mm
19:00 11.3° 1002.6 hPa 3.1 m/s 2.1 mm
 07:10     17:20    Daglengte: 10:10 Dinsdag 02 Feb
01:00 10.5° 1003.7 hPa 1.4 m/s 2.1 mm
07:00 9.7° 1004.3 hPa 0.3 m/s 2.4 mm
13:00 12.9° 1005.6 hPa 1.6 m/s 1.5 mm
19:00 10.6° 1007.1 hPa 0.7 m/s 1.2 mm
 07:09     17:21    Daglengte: 10:12 Woensdag 03 Feb
01:00 9.7° 1008.4 hPa 0.3 m/s 1.5 mm
07:00 9.1° 1009.0 hPa 0.3 m/s 0.7 mm
13:00 12.9° 1009.8 hPa 2.0 m/s 0.8 mm
19:00 10.6° 1010.6 hPa 1.3 m/s 1.2 mm
 07:08     17:22    Daglengte: 10:14 Donderdag 04 Feb
01:00 10.0° 1011.2 hPa 1.4 m/s 1.4 mm
07:00 9.7° 1011.2 hPa 1.3 m/s 1.1 mm
13:00 12.9° 1011.9 hPa 2.5 m/s 1.2 mm
19:00 10.5° 1012.6 hPa 1.5 m/s 1.4 mm
 07:07     17:24    Daglengte: 10:17 Vrijdag 05 Feb
01:00 10.0° 1013.0 hPa 1.7 m/s 1.4 mm
07:00 9.8° 1012.8 hPa 1.1 m/s 1.9 mm
13:00 12.8° 1012.7 hPa 2.5 m/s 1.7 mm
19:00 10.3° 1013.0 hPa 0.9 m/s 1.8 mm
 07:06     17:25    Daglengte: 10:19 Zaterdag 06 Feb
01:00 9.5° 1013.3 hPa 0.1 m/s 1.2 mm
FMI Hirlam - 7.5 km EWN WRFDA - 12 km DWD ICON - 7 km GFS - 25 km Basiskaart






























































Updatetijd (Europe/Amsterdam) Resolutie Lengte Stap
FMI Hirlam 01:00, 07:00, 13:00, 19:00 7.5 km 49h 1h
EWN WRFDA 03:15, 09:15, 15:15, 21:15 12 km 73h 1h
DWD ICON 22:45, 04:45, 10:45, 16:45 7 km 75h 1h
GFS 13:00, 19:00, 01:00, 07:00 25 km 237h 3h
30+ mm
25-30 mm
20-25 mm
15-20 mm
10-15 mm
6-10 mm
4-6 mm
2-4 mm
1-2 mm
0.5-1 mm
0.2-0.5 mm
0.1-0.2 mm
30+ mm
25-30 mm
20-25 mm
15-20 mm
10-15 mm
6-10 mm
4-6 mm
2-4 mm
1-2 mm
0.5-1 mm
0.2-0.5 mm
0.1-0.2 mm
Sneeuwval
Natte sneeuw
Hagel
Vorst
30+ mm
25-30 mm
20-25 mm
15-20 mm
10-15 mm
6-10 mm
4-6 mm
2-4 mm
1-2 mm
0.5-1 mm
0.2-0.5 mm
0.1-0.2 mm
Sneeuwval
Natte sneeuw
Hagel
Vorst
Onweer
50 mm
40 mm
30 mm
26 mm
22 mm
18 mm
14 mm
10 mm
9 mm
8 mm
7 mm
6 mm
5 mm
4.5 mm
4 mm
3.5 mm
3 mm
2.5 mm
2 mm
1.5 mm
1 mm
0.8 mm
0.6 mm
0.4 mm
0.2 mm
0.05 mm
35°
30°
25°
20°
15°
10°
-5°
-10°
-15°
-20°
-25°
-30°
-35°
33> m/s
29 m/s
25 m/s
21 m/s
17 m/s
14 m/s
11 m/s
8 m/s
5 m/s
3 m/s
0 m/s
2600 J/kg
2400 J/kg
2200 J/kg
2000 J/kg
1800 J/kg
1600 J/kg
1400 J/kg
1200 J/kg
1000 J/kg
800 J/kg
600 J/kg
400 J/kg
200 J/kg
70 dBZ
65 dBZ
60 dBZ
55 dBZ
50 dBZ
45 dBZ
40 dBZ
35 dBZ
30 dBZ
25 dBZ
20 dBZ
15 dBZ
10 dBZ
5 dBZ
-1 K
-2 K
-3 K
-4 K
-5 K
-6 K
-7 K
-8 K
-9 K
950 m²/s²
900 m²/s²
850 m²/s²
800 m²/s²
750 m²/s²
700 m²/s²
650 m²/s²
600 m²/s²
550 m²/s²
500 m²/s²
450 m²/s²
400 m²/s²
350 m²/s²
300 m²/s²
250 m²/s²
200 m²/s²
150 m²/s²
100 m²/s²
46 m/s
44 m/s
42 m/s
40 m/s
38 m/s
36 m/s
34 m/s
32 m/s
30 m/s
28 m/s
26 m/s
24 m/s
22 m/s
20 m/s
16 m/s
12 m/s
8 m/s
4 m/s
30 m/s
28 m/s
26 m/s
24 m/s
22 m/s
20 m/s
18 m/s
16 m/s
14 m/s
12 m/s
10 m/s
8 m/s
6 m/s
4 m/s
2 m/s
3.0
2.8
2.6
2.4
2.2
2.0
1.8
1.6
1.4
1.2
1.0
0.8
0.6
0.4
0.2
15
14
13
12
11
10
9
8
7
6
5
4
3
2
1
90%
80%
70%
60%
50%
40%
30%
20%
10%
42
40
38
36
34
32
30
28
26
24
22
20
18
16
14
12
90+ cm
80-90 cm
70-80 cm
60-70 cm
50-60 cm
40-50 cm
30-40 cm
20-30 cm
10-20 cm
1-10 cm
Sneeuwval
Natte sneeuw
Regen
>120 mm
115 mm
110 mm
105 mm
100 mm
95 mm
90 mm
85 mm
80 mm
75 mm
70 mm
65 mm
60 mm
55 mm
50 mm
45 mm
45 mm
40 mm
35 mm
30 mm
25 mm
20 mm
15 mm
10 mm
5 mm
0.1 mm
960 hPa
880 hPa
800 hPa
720 hPa
640 hPa
560 hPa